owner,sensor,date,latitude,longitude,air_temperature,qcFlag 
DISL,ioos:station:DISL:MHPA:1,2019-07-01T00:02:00Z,30.6671,-87.9365,28.93,11111222 
DISL,ioos:station:DISL:MHPA:1,2019-07-01T01:02:00Z,30.6671,-87.9365,28.54,11111222 
DISL,ioos:station:DISL:MHPA:1,2019-07-01T02:02:00Z,30.6671,-87.9365,28.55,11111222 
DISL,ioos:station:DISL:MHPA:1,2019-07-01T03:02:00Z,30.6671,-87.9365,28.35,11111222 
DISL,ioos:station:DISL:MHPA:1,2019-07-01T04:02:00Z,30.6671,-87.9365,28.04,11111222 
DISL,ioos:station:DISL:MHPA:1,2019-07-01T05:02:00Z,30.6671,-87.9365,28.11,11111222 
DISL,ioos:station:DISL:MHPA:1,2019-07-01T06:02:00Z,30.6671,-87.9365,27.84,11111222 
DISL,ioos:station:DISL:MHPA:1,2019-07-01T07:02:00Z,30.6671,-87.9365,26.2,11111222 
DISL,ioos:station:DISL:MHPA:1,2019-07-01T08:02:00Z,30.6671,-87.9365,25.77,11111222 
DISL,ioos:station:DISL:MHPA:1,2019-07-01T09:02:00Z,30.6671,-87.9365,25.63,11111222 
DISL,ioos:station:DISL:MHPA:1,2019-07-01T10:02:00Z,30.6671,-87.9365,27.35,11111222 
DISL,ioos:station:DISL:MHPA:1,2019-07-01T10:32:00Z,30.6671,-87.9365,26.04,11111222 
DISL,ioos:station:DISL:MHPA:1,2019-07-01T13:02:00Z,30.6671,-87.9365,26.96,11111222 
DISL,ioos:station:DISL:MHPA:1,2019-07-01T14:02:00Z,30.6671,-87.9365,27.81,11111222 
DISL,ioos:station:DISL:MHPA:1,2019-07-01T18:01:00Z,30.6671,-87.9365,30.01,11111222 
DISL,ioos:station:DISL:MHPA:1,2019-07-01T19:01:00Z,30.6671,-87.9365,30.75,11111222 
DISL,ioos:station:DISL:MHPA:1,2019-07-01T20:01:00Z,30.6671,-87.9365,30.31,11111222 
DISL,ioos:station:DISL:MHPA:1,2019-07-01T21:02:00Z,30.6671,-87.9365,30.11,11111222 
DISL,ioos:station:DISL:MHPA:1,2019-07-01T22:01:00Z,30.6671,-87.9365,30.11,11111222 
DISL,ioos:station:DISL:MHPA:1,2019-07-01T23:01:00Z,30.6671,-87.9365,30.07,11111222 
DISL,ioos:station:DISL:MHPA:1,2019-07-02T00:01:00Z,30.6671,-87.9365,29.31,11111222 
DISL,ioos:station:DISL:MHPA:1,2019-07-02T01:01:00Z,30.6671,-87.9365,29.46,11111222 
DISL,ioos:station:DISL:MHPA:1,2019-07-02T02:02:00Z,30.6671,-87.9365,29.15,11111222 
DISL,ioos:station:DISL:MHPA:1,2019-07-02T03:02:00Z,30.6671,-87.9365,28.82,11111222 
DISL,ioos:station:DISL:MHPA:1,2019-07-02T04:02:00Z,30.6671,-87.9365,28.65,11111222 
DISL,ioos:station:DISL:MHPA:1,2019-07-02T05:02:00Z,30.6671,-87.9365,28.35,11111222 
DISL,ioos:station:DISL:MHPA:1,2019-07-02T06:01:00Z,30.6671,-87.9365,27.33,11111222 
DISL,ioos:station:DISL:MHPA:1,2019-07-02T07:01:00Z,30.6671,-87.9365,27.01,11111222 
DISL,ioos:station:DISL:MHPA:1,2019-07-02T08:02:00Z,30.6671,-87.9365,26.51,11111222 
DISL,ioos:station:DISL:MHPA:1,2019-07-02T09:02:00Z,30.6671,-87.9365,26.44,11111222 
DISL,ioos:station:DISL:MHPA:1,2019-07-02T10:02:00Z,30.6671,-87.9365,26.17,11111222 
DISL,ioos:station:DISL:MHPA:1,2019-07-02T11:02:00Z,30.6671,-87.9365,25.97,11111222 
DISL,ioos:station:DISL:MHPA:1,2019-07-02T12:01:00Z,30.6671,-87.9365,26.17,11111222 
DISL,ioos:station:DISL:MHPA:1,2019-07-02T13:01:00Z,30.6671,-87.9365,26.66,11111222 
DISL,ioos:station:DISL:MHPA:1,2019-07-02T14:01:00Z,30.6671,-87.9365,27.63,11111222 
DISL,ioos:station:DISL:MHPA:1,2019-07-02T15:02:00Z,30.6671,-87.9365,28.62,11111222 
DISL,ioos:station:DISL:MHPA:1,2019-07-02T16:01:00Z,30.6671,-87.9365,29.57,11111222 
DISL,ioos:station:DISL:MHPA:1,2019-07-02T17:01:00Z,30.6671,-87.9365,29.84,11111222 
DISL,ioos:station:DISL:MHPA:1,2019-07-02T18:01:00Z,30.6671,-87.9365,29.91,11111222 
DISL,ioos:station:DISL:MHPA:1,2019-07-02T19:02:00Z,30.6671,-87.9365,30.65,11111222 
DISL,ioos:station:DISL:MHPA:1,2019-07-02T20:02:00Z,30.6671,-87.9365,30.61,11111222 
DISL,ioos:station:DISL:MHPA:1,2019-07-02T21:02:00Z,30.6671,-87.9365,30.68,11111222 
DISL,ioos:station:DISL:MHPA:1,2019-07-02T22:02:00Z,30.6671,-87.9365,30.48,11111222 
DISL,ioos:station:DISL:MHPA:1,2019-07-02T23:01:00Z,30.6671,-87.9365,29.26,11111222 
DISL,ioos:station:DISL:MHPA:1,2019-07-03T00:02:00Z,30.6671,-87.9365,28.24,11111222 
DISL,ioos:station:DISL:MHPA:1,2019-07-03T01:02:00Z,30.6671,-87.9365,28.07,11111222 
DISL,ioos:station:DISL:MHPA:1,2019-07-03T02:02:00Z,30.6671,-87.9365,28.51,11111222 
DISL,ioos:station:DISL:MHPA:1,2019-07-03T03:02:00Z,30.6671,-87.9365,28.62,11111222 
DISL,ioos:station:DISL:MHPA:1,2019-07-03T04:02:00Z,30.6671,-87.9365,28.52,11111222 
DISL,ioos:station:DISL:MHPA:1,2019-07-03T05:02:00Z,30.6671,-87.9365,28.11,11111222 
DISL,ioos:station:DISL:MHPA:1,2019-07-03T06:02:00Z,30.6671,-87.9365,27.5,11111222 
DISL,ioos:station:DISL:MHPA:1,2019-07-03T07:02:00Z,30.6671,-87.9365,26.61,11111222 
DISL,ioos:station:DISL:MHPA:1,2019-07-03T08:02:00Z,30.6671,-87.9365,26.17,11111222 
DISL,ioos:station:DISL:MHPA:1,2019-07-03T09:02:00Z,30.6671,-87.9365,25.56,11111222 
DISL,ioos:station:DISL:MHPA:1,2019-07-03T10:02:00Z,30.6671,-87.9365,25.63,11111222 
DISL,ioos:station:DISL:MHPA:1,2019-07-03T11:02:00Z,30.6671,-87.9365,25.43,11111222 
DISL,ioos:station:DISL:MHPA:1,2019-07-03T12:02:00Z,30.6671,-87.9365,25.77,11111222 
DISL,ioos:station:DISL:MHPA:1,2019-07-03T13:02:00Z,30.6671,-87.9365,26.17,11111222 
DISL,ioos:station:DISL:MHPA:1,2019-07-03T14:02:00Z,30.6671,-87.9365,26.5,11111222 
DISL,ioos:station:DISL:MHPA:1,2019-07-03T15:02:00Z,30.6671,-87.9365,27.37,11111222 
DISL,ioos:station:DISL:MHPA:1,2019-07-03T16:02:00Z,30.6671,-87.9365,28.43,11111222 
DISL,ioos:station:DISL:MHPA:1,2019-07-03T17:02:00Z,30.6671,-87.9365,28.72,11111222 
DISL,ioos:station:DISL:MHPA:1,2019-07-03T18:02:00Z,30.6671,-87.9365,28.99,11111222 
DISL,ioos:station:DISL:MHPA:1,2019-07-03T19:02:00Z,30.6671,-87.9365,29.3,11111222 
DISL,ioos:station:DISL:MHPA:1,2019-07-03T20:02:00Z,30.6671,-87.9365,29.77,11111222 
DISL,ioos:station:DISL:MHPA:1,2019-07-03T21:02:00Z,30.6671,-87.9365,29.64,11111222 
DISL,ioos:station:DISL:MHPA:1,2019-07-03T22:02:00Z,30.6671,-87.9365,29.7,11111222 
DISL,ioos:station:DISL:MHPA:1,2019-07-03T23:02:00Z,30.6671,-87.9365,30.14,11111222 
DISL,ioos:station:DISL:MHPA:1,2019-07-04T00:02:00Z,30.6671,-87.9365,30.11,11111222 
DISL,ioos:station:DISL:MHPA:1,2019-07-04T01:02:00Z,30.6671,-87.9365,29.81,11111222 
DISL,ioos:station:DISL:MHPA:1,2019-07-04T02:02:00Z,30.6671,-87.9365,29.63,11111222 
DISL,ioos:station:DISL:MHPA:1,2019-07-04T03:02:00Z,30.6671,-87.9365,29.56,11111222 
DISL,ioos:station:DISL:MHPA:1,2019-07-04T04:02:00Z,30.6671,-87.9365,29.09,11111222 
DISL,ioos:station:DISL:MHPA:1,2019-07-04T05:02:00Z,30.6671,-87.9365,28.51,11111222 
DISL,ioos:station:DISL:MHPA:1,2019-07-04T06:02:00Z,30.6671,-87.9365,28.28,11111222 
DISL,ioos:station:DISL:MHPA:1,2019-07-04T07:02:00Z,30.6671,-87.9365,27.44,11111222 
DISL,ioos:station:DISL:MHPA:1,2019-07-04T08:02:00Z,30.6671,-87.9365,26.75,11111222 
DISL,ioos:station:DISL:MHPA:1,2019-07-04T09:02:00Z,30.6671,-87.9365,26.21,11111222 
DISL,ioos:station:DISL:MHPA:1,2019-07-04T10:02:00Z,30.6671,-87.9365,25.9,11111222 
DISL,ioos:station:DISL:MHPA:1,2019-07-04T11:02:00Z,30.6671,-87.9365,25.6,11111222 
DISL,ioos:station:DISL:MHPA:1,2019-07-04T12:02:00Z,30.6671,-87.9365,26.31,11111222 
DISL,ioos:station:DISL:MHPA:1,2019-07-04T13:02:00Z,30.6671,-87.9365,27.23,11111222 
DISL,ioos:station:DISL:MHPA:1,2019-07-04T14:02:00Z,30.6671,-87.9365,29.3,11111222 
DISL,ioos:station:DISL:MHPA:1,2019-07-04T15:02:00Z,30.6671,-87.9365,30.24,11111222 
DISL,ioos:station:DISL:MHPA:1,2019-07-04T16:02:00Z,30.6671,-87.9365,30.87,11111222 
DISL,ioos:station:DISL:MHPA:1,2019-07-04T17:02:00Z,30.6671,-87.9365,31.64,11111222 
DISL,ioos:station:DISL:MHPA:1,2019-07-04T18:02:00Z,30.6671,-87.9365,31.97,11111222 
DISL,ioos:station:DISL:MHPA:1,2019-07-04T19:02:00Z,30.6671,-87.9365,32.95,11111222 
DISL,ioos:station:DISL:MHPA:1,2019-07-04T20:02:00Z,30.6671,-87.9365,33.59,11111222 
DISL,ioos:station:DISL:MHPA:1,2019-07-04T21:02:00Z,30.6671,-87.9365,33.64,11111222 
DISL,ioos:station:DISL:MHPA:1,2019-07-04T22:02:00Z,30.6671,-87.9365,31.7,11111222 
DISL,ioos:station:DISL:MHPA:1,2019-07-04T23:02:00Z,30.6671,-87.9365,31.56,11111222 
DISL,ioos:station:DISL:MHPA:1,2019-07-05T00:02:00Z,30.6671,-87.9365,31.42,11111222 
DISL,ioos:station:DISL:MHPA:1,2019-07-05T01:02:00Z,30.6671,-87.9365,30.78,11111222 
DISL,ioos:station:DISL:MHPA:1,2019-07-05T02:02:00Z,30.6671,-87.9365,30.56,11111222 
DISL,ioos:station:DISL:MHPA:1,2019-07-05T03:02:00Z,30.6671,-87.9365,29.93,11111222 
DISL,ioos:station:DISL:MHPA:1,2019-07-05T04:02:00Z,30.6671,-87.9365,29.9,11111222 
DISL,ioos:station:DISL:MHPA:1,2019-07-05T05:02:00Z,30.6671,-87.9365,28.82,11111222 
DISL,ioos:station:DISL:MHPA:1,2019-07-05T06:02:00Z,30.6671,-87.9365,28.32,11111222 
DISL,ioos:station:DISL:MHPA:1,2019-07-05T07:02:00Z,30.6671,-87.9365,27.9,11111222 
DISL,ioos:station:DISL:MHPA:1,2019-07-05T08:02:00Z,30.6671,-87.9365,27.75,11111222 
DISL,ioos:station:DISL:MHPA:1,2019-07-05T09:02:00Z,30.6671,-87.9365,27.12,11111222 
DISL,ioos:station:DISL:MHPA:1,2019-07-05T10:02:00Z,30.6671,-87.9365,26.68,11111222 
DISL,ioos:station:DISL:MHPA:1,2019-07-05T11:02:00Z,30.6671,-87.9365,26.48,11111222 
DISL,ioos:station:DISL:MHPA:1,2019-07-05T12:02:00Z,30.6671,-87.9365,27.02,11111222 
DISL,ioos:station:DISL:MHPA:1,2019-07-05T13:02:00Z,30.6671,-87.9365,28.07,11111222 
DISL,ioos:station:DISL:MHPA:1,2019-07-05T14:02:00Z,30.6671,-87.9365,29.4,11111222 
DISL,ioos:station:DISL:MHPA:1,2019-07-05T15:02:00Z,30.6671,-87.9365,30.88,11111222 
DISL,ioos:station:DISL:MHPA:1,2019-07-05T16:02:00Z,30.6671,-87.9365,32.85,11111222 
DISL,ioos:station:DISL:MHPA:1,2019-07-05T17:02:00Z,30.6671,-87.9365,33.59,11111222 
DISL,ioos:station:DISL:MHPA:1,2019-07-05T18:02:00Z,30.6671,-87.9365,33.83,11111222 
DISL,ioos:station:DISL:MHPA:1,2019-07-05T19:02:00Z,30.6671,-87.9365,34.2,11111222 
DISL,ioos:station:DISL:MHPA:1,2019-07-05T20:02:00Z,30.6671,-87.9365,34.55,11111222 
DISL,ioos:station:DISL:MHPA:1,2019-07-05T21:02:00Z,30.6671,-87.9365,35.05,11111222 
DISL,ioos:station:DISL:MHPA:1,2019-07-05T22:02:00Z,30.6671,-87.9365,32.93,11111222 
DISL,ioos:station:DISL:MHPA:1,2019-07-05T23:02:00Z,30.6671,-87.9365,32.61,11111222 
DISL,ioos:station:DISL:MHPA:1,2019-07-06T00:02:00Z,30.6671,-87.9365,32.23,11111222 
DISL,ioos:station:DISL:MHPA:1,2019-07-06T01:02:00Z,30.6671,-87.9365,31.73,11111222 
DISL,ioos:station:DISL:MHPA:1,2019-07-06T02:02:00Z,30.6671,-87.9365,30.75,11111222 
DISL,ioos:station:DISL:MHPA:1,2019-07-06T03:02:00Z,30.6671,-87.9365,30.26,11111222 
DISL,ioos:station:DISL:MHPA:1,2019-07-06T04:02:00Z,30.6671,-87.9365,29.79,11111222 
DISL,ioos:station:DISL:MHPA:1,2019-07-06T05:02:00Z,30.6671,-87.9365,29.32,11111222 
DISL,ioos:station:DISL:MHPA:1,2019-07-06T06:02:00Z,30.6671,-87.9365,28.72,11111222 
DISL,ioos:station:DISL:MHPA:1,2019-07-06T07:02:00Z,30.6671,-87.9365,28.07,11111222 
DISL,ioos:station:DISL:MHPA:1,2019-07-06T08:02:00Z,30.6671,-87.9365,28.04,11111222 
DISL,ioos:station:DISL:MHPA:1,2019-07-06T09:02:00Z,30.6671,-87.9365,27.41,11111222 
DISL,ioos:station:DISL:MHPA:1,2019-07-06T10:02:00Z,30.6671,-87.9365,26.95,11111222 
DISL,ioos:station:DISL:MHPA:1,2019-07-06T11:02:00Z,30.6671,-87.9365,26.48,11111222 
DISL,ioos:station:DISL:MHPA:1,2019-07-06T12:02:00Z,30.6671,-87.9365,26.88,11111222 
DISL,ioos:station:DISL:MHPA:1,2019-07-06T13:02:00Z,30.6671,-87.9365,27.43,11111222 
DISL,ioos:station:DISL:MHPA:1,2019-07-06T14:02:00Z,30.6671,-87.9365,28.66,11111222 
DISL,ioos:station:DISL:MHPA:1,2019-07-06T15:02:00Z,30.6671,-87.9365,30.65,11111222 
DISL,ioos:station:DISL:MHPA:1,2019-07-06T16:02:00Z,30.6671,-87.9365,32.11,11111222 
DISL,ioos:station:DISL:MHPA:1,2019-07-06T17:02:00Z,30.6671,-87.9365,33.36,11111222 
DISL,ioos:station:DISL:MHPA:1,2019-07-06T18:02:00Z,30.6671,-87.9365,33.56,11111222 
DISL,ioos:station:DISL:MHPA:1,2019-07-06T19:02:00Z,30.6671,-87.9365,33.96,11111222 
DISL,ioos:station:DISL:MHPA:1,2019-07-06T20:02:00Z,30.6671,-87.9365,34.79,11111222 
DISL,ioos:station:DISL:MHPA:1,2019-07-06T21:02:00Z,30.6671,-87.9365,35.49,11111222 
DISL,ioos:station:DISL:MHPA:1,2019-07-06T22:02:00Z,30.6671,-87.9365,34.28,11111222 
DISL,ioos:station:DISL:MHPA:1,2019-07-06T23:02:00Z,30.6671,-87.9365,32.98,11111222 
DISL,ioos:station:DISL:MHPA:1,2019-07-07T00:02:00Z,30.6671,-87.9365,32.53,11111222 
DISL,ioos:station:DISL:MHPA:1,2019-07-07T01:02:00Z,30.6671,-87.9365,32.0,11111222 
DISL,ioos:station:DISL:MHPA:1,2019-07-07T02:02:00Z,30.6671,-87.9365,31.36,11111222 
DISL,ioos:station:DISL:MHPA:1,2019-07-07T03:02:00Z,30.6671,-87.9365,31.02,11111222 
DISL,ioos:station:DISL:MHPA:1,2019-07-07T04:02:00Z,30.6671,-87.9365,30.52,11111222 
DISL,ioos:station:DISL:MHPA:1,2019-07-07T05:02:00Z,30.6671,-87.9365,30.33,11111222 
DISL,ioos:station:DISL:MHPA:1,2019-07-07T06:02:00Z,30.6671,-87.9365,29.56,11111222 
DISL,ioos:station:DISL:MHPA:1,2019-07-07T07:02:00Z,30.6671,-87.9365,29.09,11111222 
DISL,ioos:station:DISL:MHPA:1,2019-07-07T08:02:00Z,30.6671,-87.9365,28.95,11111222 
DISL,ioos:station:DISL:MHPA:1,2019-07-07T09:02:00Z,30.6671,-87.9365,27.43,11111222 
DISL,ioos:station:DISL:MHPA:1,2019-07-07T10:02:00Z,30.6671,-87.9365,27.14,11111222 
DISL,ioos:station:DISL:MHPA:1,2019-07-07T11:02:00Z,30.6671,-87.9365,26.91,11111222 
DISL,ioos:station:DISL:MHPA:1,2019-07-07T12:02:00Z,30.6671,-87.9365,26.98,11111222 
DISL,ioos:station:DISL:MHPA:1,2019-07-07T13:02:00Z,30.6671,-87.9365,27.84,11111222 
DISL,ioos:station:DISL:MHPA:1,2019-07-07T14:02:00Z,30.6671,-87.9365,29.03,11111222 
DISL,ioos:station:DISL:MHPA:1,2019-07-07T15:02:00Z,30.6671,-87.9365,30.41,11111222 
DISL,ioos:station:DISL:MHPA:1,2019-07-07T15:32:00Z,30.6671,-87.9365,31.27,11111222 
DISL,ioos:station:DISL:MHPA:1,2019-07-07T16:32:00Z,30.6671,-87.9365,32.21,11111222 
DISL,ioos:station:DISL:MHPA:1,2019-07-07T18:02:00Z,30.6671,-87.9365,33.15,11111222 
DISL,ioos:station:DISL:MHPA:1,2019-07-07T19:02:00Z,30.6671,-87.9365,33.76,11111222 
DISL,ioos:station:DISL:MHPA:1,2019-07-07T19:32:00Z,30.6671,-87.9365,33.29,11111222 
DISL,ioos:station:DISL:MHPA:1,2019-07-07T21:02:00Z,30.6671,-87.9365,33.83,11111222 
DISL,ioos:station:DISL:MHPA:1,2019-07-07T22:02:00Z,30.6671,-87.9365,35.41,11111222 
DISL,ioos:station:DISL:MHPA:1,2019-07-07T23:02:00Z,30.6671,-87.9365,34.77,11111222 
DISL,ioos:station:DISL:MHPA:1,2019-07-08T00:02:00Z,30.6671,-87.9365,33.79,11111222 
DISL,ioos:station:DISL:MHPA:1,2019-07-08T01:02:00Z,30.6671,-87.9365,30.95,11111222 
DISL,ioos:station:DISL:MHPA:1,2019-07-08T02:02:00Z,30.6671,-87.9365,26.95,11111222 
DISL,ioos:station:DISL:MHPA:1,2019-07-08T03:02:00Z,30.6671,-87.9365,27.4,11111222 
DISL,ioos:station:DISL:MHPA:1,2019-07-08T04:02:00Z,30.6671,-87.9365,27.05,11111222 
DISL,ioos:station:DISL:MHPA:1,2019-07-08T05:02:00Z,30.6671,-87.9365,26.24,11111222 
DISL,ioos:station:DISL:MHPA:1,2019-07-08T06:02:00Z,30.6671,-87.9365,26.27,11111222 
DISL,ioos:station:DISL:MHPA:1,2019-07-08T07:02:00Z,30.6671,-87.9365,26.21,11111222 
DISL,ioos:station:DISL:MHPA:1,2019-07-08T08:02:00Z,30.6671,-87.9365,27.25,11111222 
DISL,ioos:station:DISL:MHPA:1,2019-07-08T09:02:00Z,30.6671,-87.9365,26.37,11111222 
DISL,ioos:station:DISL:MHPA:1,2019-07-08T10:02:00Z,30.6671,-87.9365,25.87,11111222 
DISL,ioos:station:DISL:MHPA:1,2019-07-08T11:02:00Z,30.6671,-87.9365,25.06,11111222 
DISL,ioos:station:DISL:MHPA:1,2019-07-08T12:02:00Z,30.6671,-87.9365,25.12,11111222 
DISL,ioos:station:DISL:MHPA:1,2019-07-08T13:02:00Z,30.6671,-87.9365,25.86,11111222 
DISL,ioos:station:DISL:MHPA:1,2019-07-08T14:02:00Z,30.6671,-87.9365,26.89,11111222 
DISL,ioos:station:DISL:MHPA:1,2019-07-08T15:02:00Z,30.6671,-87.9365,28.16,11111222 
DISL,ioos:station:DISL:MHPA:1,2019-07-08T16:02:00Z,30.6671,-87.9365,29.2,11111222 
DISL,ioos:station:DISL:MHPA:1,2019-07-08T17:01:00Z,30.6671,-87.9365,30.01,11111222 
DISL,ioos:station:DISL:MHPA:1,2019-07-08T18:01:00Z,30.6671,-87.9365,31.42,11111222 
DISL,ioos:station:DISL:MHPA:1,2019-07-08T19:01:00Z,30.6671,-87.9365,32.47,11111222 
DISL,ioos:station:DISL:MHPA:1,2019-07-08T20:01:00Z,30.6671,-87.9365,33.29,11111222 
DISL,ioos:station:DISL:MHPA:1,2019-07-08T21:01:00Z,30.6671,-87.9365,33.83,11111222 
DISL,ioos:station:DISL:MHPA:1,2019-07-08T22:01:00Z,30.6671,-87.9365,32.07,11111222 
DISL,ioos:station:DISL:MHPA:1,2019-07-08T23:01:00Z,30.6671,-87.9365,32.78,11111222 
DISL,ioos:station:DISL:MHPA:1,2019-07-09T00:01:00Z,30.6671,-87.9365,30.01,11111222 
DISL,ioos:station:DISL:MHPA:1,2019-07-09T01:01:00Z,30.6671,-87.9365,29.95,11111222 
DISL,ioos:station:DISL:MHPA:1,2019-07-09T02:01:00Z,30.6671,-87.9365,30.47,11111222 
DISL,ioos:station:DISL:MHPA:1,2019-07-09T03:01:00Z,30.6671,-87.9365,29.36,11111222 
DISL,ioos:station:DISL:MHPA:1,2019-07-09T04:01:00Z,30.6671,-87.9365,28.92,11111222 
DISL,ioos:station:DISL:MHPA:1,2019-07-09T05:01:00Z,30.6671,-87.9365,28.55,11111222 
DISL,ioos:station:DISL:MHPA:1,2019-07-09T06:01:00Z,30.6671,-87.9365,27.84,11111222 
DISL,ioos:station:DISL:MHPA:1,2019-07-09T07:01:00Z,30.6671,-87.9365,27.47,11111222 
DISL,ioos:station:DISL:MHPA:1,2019-07-09T08:01:00Z,30.6671,-87.9365,26.84,11111222 
DISL,ioos:station:DISL:MHPA:1,2019-07-09T09:01:00Z,30.6671,-87.9365,26.68,11111222 
DISL,ioos:station:DISL:MHPA:1,2019-07-09T10:01:00Z,30.6671,-87.9365,26.68,11111222 
DISL,ioos:station:DISL:MHPA:1,2019-07-09T11:01:00Z,30.6671,-87.9365,26.61,11111222 
DISL,ioos:station:DISL:MHPA:1,2019-07-09T12:02:00Z,30.6671,-87.9365,26.54,11111222 
DISL,ioos:station:DISL:MHPA:1,2019-07-09T13:02:00Z,30.6671,-87.9365,27.77,11111222 
DISL,ioos:station:DISL:MHPA:1,2019-07-09T14:02:00Z,30.6671,-87.9365,28.73,11111222 
DISL,ioos:station:DISL:MHPA:1,2019-07-09T15:01:00Z,30.6671,-87.9365,30.51,11111222 
DISL,ioos:station:DISL:MHPA:1,2019-07-09T16:01:00Z,30.6671,-87.9365,31.75,11111222 
DISL,ioos:station:DISL:MHPA:1,2019-07-09T17:01:00Z,30.6671,-87.9365,32.88,11111222 
DISL,ioos:station:DISL:MHPA:1,2019-07-09T18:02:00Z,30.6671,-87.9365,33.05,11111222 
DISL,ioos:station:DISL:MHPA:1,2019-07-09T19:02:00Z,30.6671,-87.9365,32.45,11111222 
DISL,ioos:station:DISL:MHPA:1,2019-07-09T20:02:00Z,30.6671,-87.9365,30.07,11111222 
DISL,ioos:station:DISL:MHPA:1,2019-07-09T21:01:00Z,30.6671,-87.9365,27.78,11111222 
DISL,ioos:station:DISL:MHPA:1,2019-07-09T22:02:00Z,30.6671,-87.9365,28.53,11111222 
DISL,ioos:station:DISL:MHPA:1,2019-07-09T22:32:00Z,30.6671,-87.9365,25.87,11111222 
DISL,ioos:station:DISL:MHPA:1,2019-07-10T00:02:00Z,30.6671,-87.9365,26.14,11111222 
DISL,ioos:station:DISL:MHPA:1,2019-07-10T01:02:00Z,30.6671,-87.9365,26.1,11111222 
DISL,ioos:station:DISL:MHPA:1,2019-07-10T02:02:00Z,30.6671,-87.9365,26.21,11111222 
DISL,ioos:station:DISL:MHPA:1,2019-07-10T03:02:00Z,30.6671,-87.9365,25.87,11111222 
DISL,ioos:station:DISL:MHPA:1,2019-07-10T04:02:00Z,30.6671,-87.9365,25.7,11111222 
DISL,ioos:station:DISL:MHPA:1,2019-07-10T05:01:00Z,30.6671,-87.9365,25.39,11111222 
DISL,ioos:station:DISL:MHPA:1,2019-07-10T06:02:00Z,30.6671,-87.9365,25.33,11111222 
DISL,ioos:station:DISL:MHPA:1,2019-07-10T07:02:00Z,30.6671,-87.9365,25.29,11111222 
DISL,ioos:station:DISL:MHPA:1,2019-07-10T08:02:00Z,30.6671,-87.9365,25.26,11111222 
DISL,ioos:station:DISL:MHPA:1,2019-07-10T09:02:00Z,30.6671,-87.9365,25.12,11111222 
DISL,ioos:station:DISL:MHPA:1,2019-07-10T10:02:00Z,30.6671,-87.9365,25.12,11111222 
DISL,ioos:station:DISL:MHPA:1,2019-07-10T11:02:00Z,30.6671,-87.9365,25.12,11111222 
DISL,ioos:station:DISL:MHPA:1,2019-07-10T12:01:00Z,30.6671,-87.9365,25.23,11111222 
DISL,ioos:station:DISL:MHPA:1,2019-07-10T13:02:00Z,30.6671,-87.9365,25.95,11111222 
DISL,ioos:station:DISL:MHPA:1,2019-07-10T14:02:00Z,30.6671,-87.9365,25.27,11111222 
DISL,ioos:station:DISL:MHPA:1,2019-07-10T15:01:00Z,30.6671,-87.9365,25.58,11111222 
DISL,ioos:station:DISL:MHPA:1,2019-07-10T16:01:00Z,30.6671,-87.9365,27.7,11111222 
DISL,ioos:station:DISL:MHPA:1,2019-07-10T17:01:00Z,30.6671,-87.9365,29.97,11111222 
DISL,ioos:station:DISL:MHPA:1,2019-07-10T18:01:00Z,30.6671,-87.9365,30.82,11111222 
DISL,ioos:station:DISL:MHPA:1,2019-07-10T19:02:00Z,30.6671,-87.9365,31.63,11111222 
DISL,ioos:station:DISL:MHPA:1,2019-07-10T20:01:00Z,30.6671,-87.9365,31.99,11111222 
DISL,ioos:station:DISL:MHPA:1,2019-07-10T21:02:00Z,30.6671,-87.9365,32.38,11111222 
DISL,ioos:station:DISL:MHPA:1,2019-07-10T22:01:00Z,30.6671,-87.9365,32.65,11111222 
DISL,ioos:station:DISL:MHPA:1,2019-07-10T23:02:00Z,30.6671,-87.9365,29.25,11111222 
DISL,ioos:station:DISL:MHPA:1,2019-07-11T00:01:00Z,30.6671,-87.9365,29.14,11111222 
DISL,ioos:station:DISL:MHPA:1,2019-07-11T01:01:00Z,30.6671,-87.9365,28.68,11111222 
DISL,ioos:station:DISL:MHPA:1,2019-07-11T02:01:00Z,30.6671,-87.9365,28.28,11111222 
DISL,ioos:station:DISL:MHPA:1,2019-07-11T03:01:00Z,30.6671,-87.9365,27.57,11111222 
DISL,ioos:station:DISL:MHPA:1,2019-07-11T04:01:00Z,30.6671,-87.9365,27.41,11111222 
DISL,ioos:station:DISL:MHPA:1,2019-07-11T05:01:00Z,30.6671,-87.9365,27.02,11111222 
DISL,ioos:station:DISL:MHPA:1,2019-07-11T06:02:00Z,30.6671,-87.9365,26.61,11111222 
DISL,ioos:station:DISL:MHPA:1,2019-07-11T07:01:00Z,30.6671,-87.9365,26.07,11111222 
DISL,ioos:station:DISL:MHPA:1,2019-07-11T08:01:00Z,30.6671,-87.9365,25.73,11111222 
DISL,ioos:station:DISL:MHPA:1,2019-07-11T09:01:00Z,30.6671,-87.9365,26.04,11111222 
DISL,ioos:station:DISL:MHPA:1,2019-07-11T10:01:00Z,30.6671,-87.9365,25.5,11111222 
DISL,ioos:station:DISL:MHPA:1,2019-07-11T11:01:00Z,30.6671,-87.9365,25.36,11111222 
DISL,ioos:station:DISL:MHPA:1,2019-07-11T12:01:00Z,30.6671,-87.9365,25.73,11111222 
DISL,ioos:station:DISL:MHPA:1,2019-07-11T13:02:00Z,30.6671,-87.9365,26.69,11111222 
DISL,ioos:station:DISL:MHPA:1,2019-07-11T14:02:00Z,30.6671,-87.9365,28.26,11111222 
DISL,ioos:station:DISL:MHPA:1,2019-07-11T15:02:00Z,30.6671,-87.9365,29.23,11111222 
DISL,ioos:station:DISL:MHPA:1,2019-07-11T16:01:00Z,30.6671,-87.9365,25.87,11111222 
DISL,ioos:station:DISL:MHPA:1,2019-07-11T17:02:00Z,30.6671,-87.9365,27.5,11111222 
DISL,ioos:station:DISL:MHPA:1,2019-07-11T18:02:00Z,30.6671,-87.9365,29.07,11111222 
DISL,ioos:station:DISL:MHPA:1,2019-07-11T19:02:00Z,30.6671,-87.9365,26.9,11111222 
DISL,ioos:station:DISL:MHPA:1,2019-07-11T20:02:00Z,30.6671,-87.9365,29.99,11111222 
DISL,ioos:station:DISL:MHPA:1,2019-07-11T21:02:00Z,30.6671,-87.9365,29.94,11111222 
DISL,ioos:station:DISL:MHPA:1,2019-07-11T22:02:00Z,30.6671,-87.9365,28.39,11111222 
DISL,ioos:station:DISL:MHPA:1,2019-07-11T23:02:00Z,30.6671,-87.9365,29.43,11111222 
DISL,ioos:station:DISL:MHPA:1,2019-07-12T00:01:00Z,30.6671,-87.9365,29.47,11111222 
DISL,ioos:station:DISL:MHPA:1,2019-07-12T01:02:00Z,30.6671,-87.9365,28.51,11111222 
DISL,ioos:station:DISL:MHPA:1,2019-07-12T02:01:00Z,30.6671,-87.9365,27.81,11111222 
DISL,ioos:station:DISL:MHPA:1,2019-07-12T03:02:00Z,30.6671,-87.9365,27.06,11111222 
DISL,ioos:station:DISL:MHPA:1,2019-07-12T04:01:00Z,30.6671,-87.9365,26.85,11111222 
DISL,ioos:station:DISL:MHPA:1,2019-07-12T05:01:00Z,30.6671,-87.9365,26.58,11111222 
DISL,ioos:station:DISL:MHPA:1,2019-07-12T06:01:00Z,30.6671,-87.9365,26.34,11111222 
DISL,ioos:station:DISL:MHPA:1,2019-07-12T07:02:00Z,30.6671,-87.9365,26.41,11111222 
DISL,ioos:station:DISL:MHPA:1,2019-07-12T08:02:00Z,30.6671,-87.9365,26.24,11111222 
DISL,ioos:station:DISL:MHPA:1,2019-07-12T09:02:00Z,30.6671,-87.9365,26.34,11111222 
DISL,ioos:station:DISL:MHPA:1,2019-07-12T10:02:00Z,30.6671,-87.9365,26.61,11111222 
DISL,ioos:station:DISL:MHPA:1,2019-07-12T11:02:00Z,30.6671,-87.9365,26.64,11111222 
DISL,ioos:station:DISL:MHPA:1,2019-07-12T12:02:00Z,30.6671,-87.9365,26.48,11111222 
DISL,ioos:station:DISL:MHPA:1,2019-07-12T13:02:00Z,30.6671,-87.9365,26.93,11111222 
DISL,ioos:station:DISL:MHPA:1,2019-07-12T14:02:00Z,30.6671,-87.9365,28.28,11111222 
DISL,ioos:station:DISL:MHPA:1,2019-07-12T15:02:00Z,30.6671,-87.9365,27.63,11111222 
DISL,ioos:station:DISL:MHPA:1,2019-07-12T16:02:00Z,30.6671,-87.9365,27.52,11111222 
DISL,ioos:station:DISL:MHPA:1,2019-07-12T17:02:00Z,30.6671,-87.9365,29.22,11111222 
DISL,ioos:station:DISL:MHPA:1,2019-07-12T18:02:00Z,30.6671,-87.9365,27.99,11111222 
DISL,ioos:station:DISL:MHPA:1,2019-07-12T19:02:00Z,30.6671,-87.9365,27.97,11111222 
DISL,ioos:station:DISL:MHPA:1,2019-07-12T20:02:00Z,30.6671,-87.9365,30.25,11111222 
DISL,ioos:station:DISL:MHPA:1,2019-07-12T21:02:00Z,30.6671,-87.9365,30.18,11111222 
DISL,ioos:station:DISL:MHPA:1,2019-07-12T22:02:00Z,30.6671,-87.9365,30.07,11111222 
DISL,ioos:station:DISL:MHPA:1,2019-07-12T23:02:00Z,30.6671,-87.9365,29.57,11111222 
DISL,ioos:station:DISL:MHPA:1,2019-07-13T00:02:00Z,30.6671,-87.9365,28.63,11111222 